EW7074 Weather Reports


Display with metric or nautical units.
time (UTC)temp
F
wind
direction
speed
MPH
gust
MPH
rain 1hr
in
rain 24hr
in
rain mn
in
humidity
%
barometer
mb
20260902005513 60 119 0.0 0.0 0.00 0.00 0.07 90 1017.7
20260902004352 60 119 0.0 0.0 0.00 0.00 0.07 90 1017.6
20260902003850 61 119 0.0 0.0 0.00 0.00 0.07 90 1017.5
20260902002926 61 119 0.0 0.0 0.00 0.00 0.07 90 1017.4
20260902002427 61 0.0 0.0 0.00 0.00 0.07 90
20260902001614 61 119 0.0 0.0 0.00 0.00 0.07 90 1017.2
20260902000840 62 0.0 0.0 0.00 0.00 0.07 89
20260901235811 62 0.0 0.0 0.00 0.00 0.07 89
20260901235804 62 119 0.0 0.0 0.00 0.00 0.07 89 1017.1
20260901234258 62 119 0.0 0.0 0.00 0.00 0.07 89 1017.0
20260901233759 63 0.0 0.0 0.00 0.00 0.07 88
20260901232324 63 0.0 0.0 0.00 0.00 0.07 88
20260901231504 63 119 0.0 0.0 0.00 0.00 0.07 88 1016.6
20260901230731 64 0.0 0.0 0.00 0.00 0.07 87
20260901225830 64 122 0.0 0.0 0.00 0.00 0.07 87 1016.4
20260901225330 64 0.0 0.0 0.00 0.00 0.07 86
20260901224304 64 122 0.0 0.0 0.00 0.00 0.07 86 1016.1
20260901222823 65 124 0.0 0.0 0.00 0.00 0.07 84 1015.9
20260901222322 66 0.0 0.0 0.00 0.00 0.07 84
20260901221351 66 126 0.0 0.0 0.00 0.00 0.07 83 1015.8
20260901220837 66 0.0 0.0 0.00 0.00 0.07 81
20260901215828 66 109 0.0 1.0 0.00 0.00 0.07 81 1015.7
20260901215326 67 0.0 0.0 0.00 0.00 0.07 81
20260901214254 67 167 0.0 1.0 0.00 0.00 0.07 81 1015.7
20260901213749 67 0.0 0.0 0.00 0.00 0.07 80
20260901212832 67 143 0.0 1.0 0.00 0.00 0.07 80 1015.4
20260901212326 68 0.0 0.0 0.00 0.00 0.07 78
20260901211310 68 132 0.0 0.0 0.00 0.00 0.07 78 1015.2
20260901210757 69 0.0 0.0 0.00 0.00 0.07 77
20260901205835 69 145 0.0 1.0 0.00 0.00 0.07 76 1015.0
20260901205604 69 0.0 0.0 0.00 0.00 0.07 74
20260901204600 69 137 0.0 1.0 0.00 0.00 0.07 74 1014.8
20260901203828 70 0.0 0.0 0.00 0.00 0.07 73
20260901202535 70 144 0.0 1.0 0.00 0.00 0.07 73 1014.7
20260901202019 70 0.0 2.0 0.00 0.00 0.07 73
20260901201607 70 202 0.0 2.0 0.00 0.00 0.07 73 1014.5
20260901200812 71 0.0 0.0 0.00 0.00 0.07 75
20260901195847 71 155 0.0 1.0 0.00 0.00 0.07 75 1014.3
20260901195337 71 0.0 0.0 0.00 0.00 0.07 74
20260901194509 71 124 1.0 7.0 0.00 0.00 0.07 74 1014.0
20260901194006 71 222 0.0 3.0 0.00 0.00 0.07 74 1014.0
20260901193507 71 211 0.0 3.0 0.00 0.00 0.07 73 1013.9
20260901192957 71 198 1.0 2.0 0.00 0.00 0.07 72 1013.8
20260901192439 71 0.0 0.0 0.00 0.00 0.07 72
20260901191406 71 206 1.0 8.0 0.00 0.00 0.07 72 1013.6
20260901190859 72 120 1.0 10.0 0.00 0.00 0.07 71 1013.6
20260901190347 72 185 1.0 10.0 0.00 0.00 0.07 70 1013.6
20260901185845 73 199 3.0 10.0 0.00 0.00 0.07 70 1013.4
20260901185338 72 227 3.0 10.0 0.00 0.00 0.07 69 1013.4
20260901184830 73 226 1.0 3.0 0.00 0.00 0.07 68 1013.2
20260901184322 73 185 6.0 1.0 0.00 0.00 0.07 68 1013.2
20260901183809 72 0.0 0.0 0.00 0.00 0.07 69
20260901183109 72 216 8.0 13.0 0.00 0.00 0.07 70 1013.2
20260901182337 72 0.0 0.0 0.00 0.00 0.07 68
20260901181534 73 224 4.0 14.0 0.00 0.00 0.07 67 1013.1
20260901180758 73 0.0 0.0 0.00 0.00 0.07 70
20260901175829 73 208 4.0 6.0 0.00 0.00 0.07 69 1013.0
20260901175305 72 0.0 0.0 0.00 0.00 0.07 69
20260901174336 72 208 5.0 10.0 0.00 0.00 0.07 69 1013.1
20260901173831 72 0.0 0.0 0.00 0.00 0.07 74
20260901172801 71 222 5.0 13.0 0.00 0.00 0.07 73 1013.2
20260901172304 71 215 3.0 5.0 0.00 0.00 0.07 76 1013.1
20260901171344 71 220 2.0 9.0 0.00 0.00 0.07 78 1013.1
20260901170831 70 0.0 0.0 0.00 0.00 0.07 78
20260901170256 69 0.0 0.0 0.00 0.00 0.07 82
20260901170129 70 228 2.0 7.0 0.00 0.00 0.07 78 1013.2
20260901164551 69 233 2.0 8.0 0.00 0.00 0.07 82 1013.4
20260901163808 69 0.0 0.0 0.00 0.00 0.07 83
20260901162838 68 243 2.0 9.0 0.00 0.00 0.07 83 1013.5
20260901162324 67 0.0 0.0 0.00 0.00 0.07 87
20260901161525 67 293 0.0 1.0 0.00 0.00 0.07 88 1013.5
20260901160741 66 0.0 0.0 0.00 0.00 0.07 89
20260901155538 66 239 0.0 1.0 0.02 0.02 0.07 89 1013.6
20260901155036 66 0.0 0.0 0.02 0.02 0.07 88
20260901154356 66 222 0.0 0.0 0.02 0.02 0.07 88 1013.5
20260901153855 67 0.0 0.0 0.00 0.00 0.06 85
20260901153020 67 193 0.0 1.0 0.00 0.00 0.06 84 1013.5
20260901152230 67 0.0 0.0 0.00 0.00 0.06 83
20260901151226 67 149 1.0 8.0 0.00 0.00 0.06 83 1013.6
20260901151001 68 219 2.0 0.0 0.00 0.00 0.06 86 1013.6
20260901145821 68 212 1.0 9.0 0.00 0.00 0.06 87 1013.9
20260901145320 67 0.0 0.0 0.00 0.00 0.06 86
20260901144345 67 224 2.0 9.0 0.00 0.00 0.06 86 1013.5
20260901143833 68 0.0 0.0 0.00 0.00 0.06 85
20260901142826 68 221 1.0 4.0 0.00 0.00 0.06 86 1013.4
20260901142326 67 0.0 0.0 0.00 0.00 0.06 88
20260901141523 67 217 2.0 3.0 0.00 0.00 0.06 88 1013.5
20260901141021 66 0.0 0.0 0.00 0.00 0.06 90
20260901135830 66 208 3.0 9.0 0.00 0.00 0.06 90 1013.5
20260901135600 66 0.0 0.0 0.00 0.00 0.06 92
20260901134316 66 256 1.0 5.0 0.00 0.00 0.06 93 1013.4
20260901133815 65 0.0 0.0 0.00 0.00 0.06 93
20260901132757 64 235 1.0 2.0 0.00 0.00 0.06 93 1013.3
20260901132257 64 0.0 0.0 0.00 0.00 0.06 94
20260901131335 64 180 0.0 1.0 0.00 0.00 0.06 94 1013.3
20260901130829 64 0.0 0.0 0.00 0.00 0.06 94
20260901125803 64 202 1.0 1.0 0.00 0.00 0.06 94 1013.3
20260901125249 63 0.0 0.0 0.00 0.00 0.06 94
20260901124327 64 175 0.0 1.0 0.00 0.00 0.06 94 1013.2
20260901123818 63 0.0 0.0 0.00 0.00 0.06 94
20260901122758 63 193 1.0 3.0 0.00 0.00 0.06 94 1013.1
20260901122248 63 0.0 0.0 0.00 0.00 0.06 94
20260901121029 63 233 1.0 4.0 0.00 0.00 0.06 94 1012.9
20260901120513 63 0.0 3.0 0.00 0.00 0.06 94
20260901120104 63 216 1.0 4.0 0.00 0.00 0.06 94 1012.8
20260901115554 62 0.0 0.0 0.00 0.00 0.06 94
20260901114258 62 233 1.0 2.0 0.01 0.01 0.06 94 1012.7
20260901113757 62 0.0 0.0 0.00 0.00 0.04 94
20260901113100 62 222 0.0 2.0 0.03 0.03 0.04 94 1012.5
20260901111307 62 236 1.0 2.0 0.00 0.00 0.02 94 1012.3
20260901110802 62 228 1.0 1.0 0.00 0.00 0.02 94 1012.2
20260901105758 62 230 0.0 2.0 0.00 0.00 0.02 94 1012.0
20260901105252 62 0.0 0.0 0.00 0.00 0.02 94
20260901104333 62 228 0.0 0.0 0.00 0.00 0.02 94 1011.8
20260901103826 62 0.0 0.0 0.00 0.00 0.02 94
20260901103017 62 228 0.0 0.0 0.00 0.00 0.02 94 1011.3
20260901102240 62 0.0 0.0 0.00 0.00 0.02 94
20260901101459 62 228 0.0 0.0 0.00 0.00 0.02 94 1011.3
20260901100727 62 228 0.0 0.0 0.00 0.00 0.02 94 1011.0
20260901100036 62 228 0.0 0.0 0.00 0.00 0.02 94 1011.0
20260901095306 62 0.0 0.0 0.00 0.00 0.02 94
20260901094339 62 228 0.0 0.0 0.02 0.02 0.02 94 1011.0
20260901094057 62 0.0 0.0 0.00 0.00 0.00 94
20260901092758 62 228 0.0 0.0 0.00 0.00 0.00 94 1010.8
20260901092247 62 0.0 0.0 0.00 0.00 0.00 94
20260901090804 62 0.0 0.0 0.00 0.00 0.00 94
20260901085836 62 228 0.0 0.0 0.00 0.00 0.00 94 1010.3
20260901085327 62 0.0 0.0 0.00 0.00 0.00 94
20260901084302 62 228 0.0 0.0 0.00 0.00 0.00 94 1010.4
20260901083746 62 0.0 0.0 0.00 0.00 0.00 94
20260901082736 62 227 0.0 0.0 0.00 0.00 0.00 94 1010.3
20260901081956 62 0.0 0.0 0.00 0.00 0.00 94
20260901081231 62 227 0.0 0.0 0.00 0.00 0.00 94 1010.0
20260901081000 62 0.0 0.0 0.00 0.00 0.00 94
20260901075816 62 227 0.0 0.0 0.00 0.00 0.00 94 1009.9
20260901075307 62 0.0 0.0 0.00 0.00 0.00 94
20260901074339 62 226 0.0 0.0 0.00 0.00 0.00 94 1009.6
20260901073828 62 0.0 0.0 0.00 0.00 0.00 94
20260901073304 62 213 0.0 0.0 0.00 0.00 0.00 94 1009.1
20260901072242 62 213 0.0 0.0 0.00 0.00 0.00 94 1008.9
20260901071341 62 213 0.0 0.0 0.00 0.00 0.00 94 1009.1
20260901070825 62 0.0 0.0 0.00 0.00 0.00 94
20260901065751 62 213 0.0 0.0 0.00 0.00 0.00 94 1009.3
20260901065250 62 213 0.0 0.0 0.00 0.00 0.00 93 1009.4
20260901064250 62 213 0.0 0.0 0.00 0.00 0.00 93 1009.4
20260901064245 62 0.0 0.0 0.00 0.00 0.00 93
20260901063058 62 213 0.0 0.0 0.00 0.00 0.00 93 1009.6
20260901062325 62 0.0 0.0 0.00 0.00 0.00 93
20260901061401 62 213 0.0 0.0 0.00 0.00 0.00 93 1009.5
20260901061132 62 0.0 0.0 0.00 0.00 0.00 93 1009.5
20260901055819 63 213 0.0 0.0 0.00 0.00 0.00 93 1009.5
20260901055549 63 0.0 0.0 0.00 0.00 0.00 93
20260901054556 63 209 0.0 1.0 0.00 0.00 0.00 93 1009.6
20260901053823 63 0.0 0.0 0.00 0.00 0.00 93
20260901052809 63 208 0.0 2.0 0.00 0.00 0.00 93 1009.8
20260901052308 63 222 0.0 0.0 0.00 0.00 0.00 93 1009.9
20260901051226 63 222 0.0 0.0 0.00 0.00 0.00 93 1010.1
20260901050725 63 0.0 0.0 0.00 0.00 0.00 93
20260901045816 63 222 0.0 0.0 0.00 0.00 0.00 93 1010.2
20260901045306 63 0.0 0.0 0.00 0.00 0.00 93
20260901044246 63 222 0.0 0.0 0.00 0.00 0.00 93 1010.7
20260901043743 63 222 0.0 0.0 0.00 0.00 0.00 93 1010.7
20260901042845 63 214 0.0 2.0 0.00 0.00 0.00 93 1010.7
20260901042337 63 0.0 0.0 0.00 0.00 0.00 93
20260901041316 63 239 0.0 2.0 0.00 0.00 0.00 93 1010.8
20260901040805 63 0.0 0.0 0.00 0.00 0.00 93
20260901035838 63 239 0.0 1.0 0.00 0.00 0.00 93 1010.9
20260901035332 63 0.0 0.0 0.00 0.00 0.00 93
20260901034310 63 239 0.0 1.0 0.00 0.00 0.00 93 1010.6
20260901033759 63 239 0.0 0.0 0.00 0.00 0.00 93 1010.5
20260901032801 63 252 0.0 2.0 0.00 0.00 0.00 93 1010.5
20260901031328 63 229 0.0 0.0 0.00 0.00 0.00 93 1010.7
20260901030838 64 0.0 0.0 0.00 0.00 0.00 93
20260901025853 64 209 0.0 0.0 0.00 0.00 0.04 93 1010.5
20260901025334 64 0.0 0.0 0.00 0.00 0.04 93
20260901024311 64 208 0.0 0.0 0.00 0.00 0.04 93 1010.2
20260901023810 63 208 0.0 0.0 0.00 0.00 0.04 93 1010.2
20260901021259 64 203 0.0 0.0 0.00 0.00 0.04 92 1009.6
20260901020749 64 0.0 0.0 0.00 0.00 0.04 92
20260901015829 64 212 0.0 2.0 0.00 0.00 0.04 92 1009.9
20260901015600 64 0.0 0.0 0.00 0.00 0.04 93
20260901014305 64 218 0.0 0.0 0.00 0.00 0.04 93 1010.8
20260901013802 64 218 0.0 0.0 0.00 0.00 0.04 92 1010.9
20260901012808 64 219 0.0 1.0 0.00 0.00 0.04 92 1011.0
20260901012538 64 0.0 0.0 0.00 0.00 0.04 92
20260901011347 64 213 0.0 0.0 0.00 0.00 0.04 92 1010.9
20260901010829 65 0.0 0.0 0.00 0.00 0.04 92
20260901005808 65 223 0.0 0.0 0.00 0.00 0.04 92 1011.1